Temperature
7 8 8 8 8 9 9 9 9 10 10 12 12 12 13 14 14 14 15 15 15 16 16 17 17 17 17 17 17 16 16 16 16 16 15 15 14 14 13 13 12 12 11 11
6 7 8 8 8 9 9 9 9 9 10 12 12 13 12 13 13 13 14 14 15 15 15 16 16 16 16 16 16 16 16 16 16 15 15 14 14 14 13 13 12 11 11 10
6 7 7 7 8 9 9 9 9 10 11 11 11 11 12 12 13 13 13 14 14 15 15 15 15 16 16 16 16 15 15 15 15 15 15 14 14 13 13 12 12 11 10 10
5 6 6 8 9 9 9 9 10 10 10 11 11 12 12 13 13 13 13 13 14 14 14 15 15 15 15 15 15 15 15 15 15 14 14 14 13 13 12 12 11 11 10 10
4 5 6 7 8 8 8 9 9 9 10 10 11 11 11 12 12 12 13 13 13 14 14 14 14 14 14 14 14 14 14 14 14 14 14 13 13 12 12 11 11 10 10 9
4 5 5 7 8 9 8 8 9 9 9 9 9 8 10 11 11 12 12 12 12 13 13 13 13 14 14 14 14 14 14 14 14 13 13 13 12 12 11 11 10 9 9 8
4 5 6 7 8 8 7 8 8 9 9 9 8 9 10 10 11 11 11 11 12 12 12 12 13 13 13 13 13 13 13 13 13 13 12 12 11 11 10 10 9 8 8 8
4 4 5 7 7 7 8 9 9 9 9 9 9 9 9 10 10 10 10 11 11 11 11 12 12 12 12 12 12 12 12 12 12 12 11 11 10 10 9 9 8 8 7 7
5 6 7 8 8 9 9 9 9 9 9 9 9 9 9 9 9 9 10 10 10 10 10 11 11 11 11 12 12 11 11 11 11 11 10 10 10 9 8 8 8 7 7 6
4 5 6 7 8 8 8 8 8 8 8 8 8 8 8 8 9 9 9 9 9 9 10 10 10 10 10 10 10 10 10 10 10 10 9 9 9 8 8 8 7 7 6 6
4 5 5 7 7 8 8 8 8 8 8 7 7 7 7 7 8 8 8 8 8 8 9 9 9 9 9 9 9 9 9 9 9 9 8 8 8 7 7 7 7 6 6 5
4 5 5 6 7 7 7 7 7 7 7 7 6 6 6 6 7 7 6 7 7 7 7 7 8 8 8 8 8 8 8 8 8 8 7 7 6 6 5 5 5 5 5 4
5 6 6 6 6 6 6 6 6 6 6 6 6 6 5 5 5 5 5 5 5 6 6 6 6 7 7 7 7 7 7 7 7 6 6 6 5 5 5 4 4 3 3 3
5 5 5 5 5 5 5 5 5 5 5 5 5 5 4 4 4 4 4 4 4 5 5 5 5 6 6 6 6 6 6 6 6 6 5 5 4 4 4 3 3 2 2 2
4 4 4 4 4 4 4 4 4 4 4 4 4 4 3 3 3 3 3 3 3 3 4 4 4 5 5 4 4 5 5 5 5 4 4 4 3 3 3 2 2 1 1 1
3 3 3 3 3 3 3 3 3 3 3 3 3 3 2 2 2 2 2 2 2 2 3 3 3 3 3 3 3 3 3 3 3 3 3 2 2 2 1 1 1 0 0 -0
2 1 1 2 2 2 2 2 1 1 1 1 1 1 1 1 1 1 1 1 1 2 2 2 2 2 2 3 3 2 2 2 2 2 2 1 1 1 1 0 0 -0 -1 -1
1 1 1 1 1 1 1 1 1 0 0 0 0 0 0 0 0 0 0 0 0 1 1 1 1 1 1 1 1 1 1 1 1 1 1 0 0 0 -0 -0 -1 -1 -1 -2
-0 -1 -0 -0 -0 -0 -0 -0 -0 -0 -0 -0 -0 -0 -0 -1 -1 -1 -1 -1 -1 -0 -0 0 0 0 0 0 0 0 0 0 0 -0 -0 -0 -1 -1 -1 -1 -1 -2 -2 -2
-2 -2 -2 -2 -2 -2 -2 -1 -1 -1 -1 -1 -1 -1 -1 -1 -1 -2 -2 -2 -1 -1 -1 -1 -1 -1 -1 -1 -1 -1 -1 -1 -1 -1 -1 -1 -1 -1 -2 -2 -2 -3 -3 -3
-3 -3 -3 -3 -3 -2 -2 -2 -2 -2 -2 -2 -2 -2 -2 -2 -2 -2 -3 -3 -2 -2 -2 -2 -2 -2 -2 -2 -2 -2 -2 -2 -2 -2 -2 -2 -2 -2 -2 -3 -3 -3 -4 -4
-4 -4 -4 -4 -3 -3 -3 -3 -3 -3 -3 -3 -3 -3 -3 -3 -3 -3 -3 -3 -3 -3 -3 -3 -3 -3 -3 -3 -3 -2 -2 -2 -2 -2 -2 -2 -3 -3 -3 -3 -4 -4 -4 -4
-5 -5 -5 -5 -4 -4 -4 -4 -4 -4 -4 -4 -4 -4 -4 -4 -4 -4 -4 -4 -4 -4 -4 -3 -3 -3 -3 -3 -3 -3 -3 -3 -3 -3 -3 -3 -3 -3 -3 -4 -4 -4 -5 -5
-6 -6 -5 -5 -5 -5 -5 -5 -5 -4 -4 -4 -5 -5 -5 -5 -5 -5 -5 -4 -4 -4 -4 -4 -4 -4 -4 -4 -3 -4 -4 -3 -3 -3 -4 -4 -4 -4 -4 -4 -5 -5 -5 -5
-6 -6 -6 -6 -6 -6 -6 -6 -5 -5 -5 -5 -5 -5 -5 -5 -5 -5 -5 -5 -5 -5 -5 -5 -5 -4 -4 -4 -4 -4 -4 -4 -4 -4 -4 -4 -4 -5 -5 -5 -5 -6 -6 -6
-7 -7 -7 -7 -7 -7 -7 -7 -7 -6 -6 -6 -6 -6 -6 -6 -6 -6 -5 -5 -5 -5 -5 -5 -5 -5 -5 -5 -5 -5 -5 -5 -5 -5 -5 -5 -5 -5 -5 -6 -6 -6 -6 -6
-8 -8 -8 -8 -8 -8 -8 -8 -7 -7 -7 -7 -7 -7 -7 -6 -6 -6 -6 -6 -6 -6 -6 -5 -5 -5 -5 -5 -5 -5 -5 -5 -5 -5 -6 -6 -6 -6 -6 -6 -6 -6 -7 -7
Wind_Speed
11 9 8 10 13 14 15 14 14 15 18 19 13 10 9 9 9 8 8 7 7 7 8 7 7 7 8 9 8 8 9 11 13 12 11 10 10 10 10 10 10 10 10 9
10 10 11 13 16 17 18 17 18 18 22 17 12 10 10 10 10 10 10 9 9 8 8 8 9 9 9 9 8 8 10 11 10 10 10 11 11 10 10 10 9 9 10 10
8 8 7 13 15 17 15 15 15 21 23 14 12 12 12 11 11 11 11 10 9 9 9 10 10 9 10 10 8 8 9 9 9 10 11 11 10 10 11 10 9 9 9 9
4 4 12 11 7 12 15 16 16 16 16 13 14 13 11 10 10 11 11 10 10 9 8 8 8 8 7 6 7 8 9 9 9 9 10 10 10 11 10 8 9 9 9 9
4 7 11 10 6 8 12 15 13 15 16 14 12 9 12 9 8 10 10 10 9 9 8 7 7 7 6 6 7 8 9 9 9 10 10 10 11 11 8 8 8 8 8 8
6 7 9 9 4 4 5 11 9 10 12 11 6 7 12 9 8 9 9 8 7 7 6 6 6 5 6 7 7 9 10 10 9 10 11 11 11 9 7 7 8 7 7 7
11 10 10 9 4 2 6 8 4 6 9 8 8 11 11 8 7 7 7 7 6 5 5 6 4 5 6 6 9 9 7 6 7 8 10 9 8 7 7 7 7 7 6 5
8 10 12 6 4 6 8 5 4 5 6 7 9 10 9 8 8 8 7 6 5 5 5 4 3 5 6 7 7 4 4 5 6 7 7 7 8 7 8 9 8 7 6 5
9 10 6 5 7 6 4 5 6 6 7 6 7 8 8 8 8 8 7 6 5 5 6 5 3 4 6 6 3 3 4 5 5 5 6 7 8 9 8 8 7 6 6 6
8 10 9 9 8 7 6 8 8 7 7 7 8 8 9 8 8 7 7 6 5 4 5 5 4 4 5 3 3 4 5 4 5 6 6 6 6 7 8 8 7 7 7 6
11 10 8 9 9 9 9 9 9 8 7 7 8 9 9 8 8 6 7 6 5 5 5 6 4 4 3 2 3 4 5 5 5 5 6 6 5 5 6 6 8 8 8 8
11 8 7 9 8 7 7 8 8 8 8 7 7 8 8 7 7 6 6 6 5 5 5 5 4 4 3 2 4 5 5 5 4 4 5 5 5 3 3 3 6 7 7 7
14 12 11 11 9 8 8 8 8 8 8 8 7 6 7 7 6 6 6 6 6 5 5 5 4 4 3 3 4 6 6 6 5 5 6 6 6 6 4 3 5 6 8 8
11 10 11 11 10 9 8 9 8 7 7 6 6 6 6 6 6 6 6 6 5 5 4 4 4 4 3 2 3 4 5 5 5 5 6 6 6 6 6 6 5 3 4 7
12 11 11 9 8 8 8 7 7 7 7 6 5 5 5 6 6 7 6 5 4 4 4 4 4 4 2 1 2 3 4 4 4 4 4 4 5 5 5 6 5 4 4 4
9 7 8 8 9 8 7 7 8 8 7 7 6 6 6 6 6 6 5 3 3 4 5 4 4 4 2 2 2 2 3 5 5 5 5 5 5 5 6 6 6 5 5 5
7 8 8 8 8 8 8 8 8 8 8 7 7 6 5 4 4 4 4 4 3 4 4 4 4 2 1 2 2 2 3 5 6 5 4 5 5 5 6 6 6 5 5 5
7 8 8 7 8 8 8 7 6 7 7 7 6 5 4 4 5 5 4 4 3 4 4 3 2 1 1 2 2 2 3 4 4 4 4 5 5 5 5 6 6 6 5 4
5 5 6 6 6 6 6 6 6 5 5 4 4 4 4 4 4 3 3 3 3 4 4 3 1 0 1 2 3 3 4 5 4 4 4 6 5 5 5 5 5 5 5 5
4 5 5 5 4 4 5 5 4 4 4 3 3 3 3 3 3 2 2 3 3 3 3 2 0 0 1 2 3 3 4 5 5 5 5 5 5 5 5 5 5 5 5 4
5 5 5 4 4 4 4 4 3 3 3 3 3 3 3 3 2 2 2 3 3 2 1 1 1 0 1 2 4 3 4 5 5 5 5 5 5 5 5 5 5 5 4 4
5 5 5 5 4 4 4 3 2 2 2 2 2 2 1 1 1 2 2 3 3 2 1 1 0 1 3 4 3 3 4 4 4 4 5 5 5 5 5 5 5 4 4 4
5 5 5 5 5 4 4 3 3 2 2 2 2 2 2 1 1 1 2 2 1 1 1 0 1 2 4 3 3 3 3 4 4 4 5 5 5 5 5 5 4 4 4 4
5 5 5 4 4 3 3 4 3 2 1 2 2 2 1 1 1 1 1 1 2 2 1 1 2 3 3 2 2 3 3 3 3 4 4 4 4 4 4 4 4 4 4 4
4 4 4 4 3 3 3 3 3 2 2 1 2 2 1 1 1 1 1 1 0 2 1 2 3 3 2 2 2 2 2 3 4 4 4 4 4 4 4 4 4 4 4 4
4 3 3 3 3 3 2 2 2 2 2 2 2 2 1 1 1 0 1 1 1 2 2 1 2 2 2 2 2 2 3 4 4 4 4 4 4 4 4 4 4 4 3 3
3 3 3 3 3 2 2 2 2 2 2 1 2 2 2 1 1 1 1 1 1 2 2 2 2 2 2 2 3 3 3 3 3 4 4 3 3 3 3 4 3 3 3 3
Wind_Direction
253 258 241 239 238 232 230 232 241 251 252 258 264 268 277 286 290 291 289 284 272 260 253 245 235 226 220 219 211 201 198 202 207 204 198 194 192 192 189 189 191 189 188 190
257 253 253 257 244 234 235 238 243 256 263 260 263 266 272 275 278 280 279 276 269 262 257 248 235 229 223 220 213 200 202 209 207 197 193 193 193 188 185 187 185 183 188 189
260 259 266 254 237 230 231 230 232 245 254 266 267 264 263 268 269 272 274 272 266 259 252 249 239 227 221 219 208 199 205 207 201 195 194 194 187 184 187 187 182 185 190 189
257 244 246 249 223 223 234 244 238 245 257 257 257 262 260 258 262 269 274 273 269 263 260 253 241 228 222 210 200 200 204 206 200 193 193 187 182 188 189 184 184 189 191 190
226 245 267 275 244 213 222 246 241 247 260 266 268 277 270 265 260 262 268 271 268 261 252 250 240 224 207 204 201 202 207 208 202 193 188 184 187 190 188 182 186 188 185 184
221 237 250 256 242 221 212 254 249 244 259 269 274 269 272 286 277 272 274 275 275 273 257 252 248 213 196 204 203 212 214 210 200 190 187 189 190 186 181 180 184 179 180 184
228 240 258 259 251 143 203 244 259 235 247 256 247 249 273 288 284 279 278 276 275 272 263 255 243 200 205 210 218 222 214 201 192 189 187 185 179 175 169 167 166 171 173 176
213 231 248 244 181 203 233 256 269 261 257 257 259 270 277 280 283 285 285 285 283 276 275 275 238 202 215 224 226 208 187 188 189 185 176 168 167 169 165 164 167 172 171 172
211 228 245 217 209 234 246 259 267 273 277 273 273 277 275 275 278 280 280 286 288 274 279 286 256 215 224 237 211 175 177 186 182 172 168 167 168 168 167 168 173 177 176 181
244 255 260 263 262 265 260 262 268 267 273 276 276 279 281 281 283 285 291 290 293 289 283 285 277 253 239 231 185 175 184 185 175 168 168 167 169 169 172 176 178 180 181 185
247 260 277 274 262 262 268 271 272 272 269 269 274 279 278 281 281 284 291 293 293 284 278 279 279 266 254 209 180 186 187 182 176 171 168 167 168 176 179 186 183 183 187 182
248 248 246 264 267 268 269 274 276 277 279 278 271 274 279 281 284 285 287 293 292 285 280 283 282 276 267 218 187 180 181 180 176 170 162 160 153 123 109 146 161 165 170 172
251 260 256 262 273 276 273 277 276 272 271 277 280 279 280 283 286 285 284 283 279 275 276 282 276 270 265 230 198 187 185 181 176 170 166 165 163 160 146 106 121 140 151 156
251 261 266 265 269 275 275 277 278 277 275 272 276 280 279 284 291 290 285 286 288 287 286 285 279 275 273 234 192 183 176 176 173 172 168 167 168 167 161 157 154 142 146 150
255 248 253 265 274 278 280 281 283 283 283 283 280 277 274 276 283 288 290 295 300 302 296 288 279 282 282 209 180 173 167 170 163 157 153 154 153 152 151 152 152 146 135 147
261 258 255 259 267 274 278 275 275 278 279 279 280 278 276 275 278 285 292 291 285 289 290 285 281 287 266 181 161 159 164 157 150 149 147 148 152 153 154 155 154 157 161 162
255 262 264 269 271 274 271 269 271 276 279 276 276 280 283 285 284 283 294 298 288 289 293 283 282 287 223 168 160 160 157 153 144 143 151 159 160 160 160 160 160 163 168 172
247 255 261 265 271 275 278 279 279 278 278 279 282 280 272 267 268 276 291 302 307 312 309 298 296 296 154 149 146 148 151 149 151 153 156 160 158 155 155 155 156 157 155 158
282 275 277 278 278 277 280 281 280 279 282 280 274 273 277 273 270 277 290 292 292 300 309 310 309 66 152 146 134 142 143 144 146 150 152 155 147 147 151 154 157 158 157 159
310 296 286 287 290 285 284 284 283 282 282 277 274 281 285 284 282 283 290 289 286 285 291 305 8 161 160 147 132 139 141 147 151 150 149 154 154 154 153 155 155 155 159 162
327 323 316 306 306 306 298 291 287 289 293 281 261 258 267 280 283 279 280 292 302 311 328 10 53 143 142 135 126 133 140 145 151 156 157 157 154 153 152 153 154 155 157 159
326 327 324 321 319 317 318 313 302 296 303 299 284 266 272 287 306 311 292 273 284 321 356 351 10 138 134 124 125 134 142 147 152 153 154 155 156 156 156 156 156 157 160 162
321 322 323 321 316 315 325 329 324 314 306 302 295 282 274 281 283 279 303 308 300 338 10 308 121 123 120 111 124 136 144 149 152 154 155 157 158 158 160 159 160 160 163 166
325 325 323 323 325 334 336 335 346 352 344 324 308 289 277 313 324 308 271 299 337 357 10 93 107 110 104 104 121 135 144 147 148 147 146 146 147 150 154 156 157 161 166 169
327 325 328 333 332 325 325 338 353 7 18 9 354 348 339 303 267 294 314 294 9 33 42 75 85 86 91 113 129 139 145 148 147 144 145 146 149 151 155 157 160 165 171 176
328 323 320 317 313 317 329 340 342 344 356 3 1 7 11 13 33 31 47 45 66 63 62 59 64 73 93 117 130 134 135 137 132 134 142 144 147 151 155 157 162 170 175 180
334 336 339 342 341 344 347 345 338 332 331 333 347 353 4 15 31 44 50 59 68 67 64 63 68 77 89 101 110 115 120 126 129 132 135 139 146 153 158 161 167 171 177 184
Height
1431 1428 1427 1426 1424 1424 1426 1424 1425 1413 1409 1399 1397 1396 1394 1393 1391 1390 1389 1388 1388 1388 1387 1387 1388 1389 1390 1391 1393 1395 1397 1399 1401 1404 1407 1410 1413 1415 1418 1420 1422 1425 1427 1429
1428 1424 1423 1420 1416 1416 1415 1414 1412 1408 1401 1392 1393 1393 1391 1390 1389 1387 1385 1385 1384 1384 1383 1383 1383 1383 1384 1385 1387 1388 1390 1392 1395 1398 1401 1403 1406 1409 1411 1413 1416 1418 1420 1423
1427 1422 1420 1416 1407 1406 1405 1401 1402 1400 1390 1388 1389 1388 1387 1386 1385 1383 1382 1380 1380 1379 1379 1378 1378 1378 1378 1379 1381 1383 1384 1386 1388 1391 1394 1396 1399 1402 1404 1407 1409 1411 1414 1416
1427 1424 1422 1401 1393 1394 1395 1393 1392 1389 1384 1383 1383 1381 1381 1381 1380 1378 1377 1376 1374 1373 1372 1372 1372 1373 1373 1374 1375 1377 1378 1380 1382 1384 1386 1389 1392 1395 1398 1400 1402 1405 1407 1410
1425 1421 1409 1396 1391 1390 1390 1386 1384 1383 1380 1379 1379 1378 1375 1375 1375 1373 1372 1370 1369 1367 1367 1366 1366 1367 1367 1368 1369 1370 1371 1373 1375 1377 1380 1382 1385 1388 1391 1393 1396 1398 1401 1403
1420 1416 1407 1389 1383 1382 1386 1384 1377 1378 1376 1376 1376 1380 1371 1370 1370 1368 1366 1365 1363 1362 1361 1360 1360 1361 1361 1361 1362 1363 1365 1367 1369 1371 1373 1375 1378 1381 1384 1387 1390 1392 1395 1397
1411 1408 1396 1383 1380 1381 1389 1379 1372 1372 1371 1371 1372 1371 1367 1366 1365 1363 1361 1360 1359 1357 1356 1355 1355 1356 1355 1356 1356 1358 1359 1361 1362 1364 1367 1369 1372 1375 1378 1381 1384 1387 1389 1391
1402 1402 1392 1376 1377 1379 1374 1370 1370 1368 1367 1366 1364 1363 1363 1362 1360 1358 1356 1354 1353 1352 1351 1351 1351 1350 1350 1350 1351 1352 1353 1354 1356 1358 1361 1363 1366 1369 1372 1375 1378 1380 1383 1384
1387 1382 1373 1370 1370 1369 1369 1368 1366 1366 1364 1363 1360 1359 1357 1356 1354 1353 1351 1349 1348 1347 1346 1346 1346 1345 1345 1345 1346 1346 1348 1349 1350 1352 1355 1357 1360 1363 1366 1369 1371 1373 1376 1378
1380 1372 1369 1367 1366 1366 1366 1365 1363 1362 1360 1359 1356 1354 1353 1351 1349 1347 1346 1344 1343 1342 1341 1340 1340 1339 1339 1339 1340 1341 1342 1343 1345 1346 1349 1351 1354 1357 1360 1362 1365 1367 1369 1371
1372 1367 1366 1363 1362 1362 1361 1359 1358 1357 1356 1354 1352 1350 1349 1347 1345 1343 1341 1340 1338 1337 1336 1335 1334 1334 1334 1334 1335 1335 1337 1338 1339 1341 1343 1345 1348 1351 1354 1356 1359 1361 1363 1365
1366 1363 1363 1359 1358 1357 1356 1354 1353 1352 1350 1349 1348 1345 1344 1342 1340 1339 1337 1335 1334 1332 1331 1330 1329 1328 1329 1329 1330 1330 1331 1332 1334 1336 1338 1340 1343 1346 1349 1352 1354 1357 1359 1361
1358 1357 1356 1354 1353 1352 1351 1349 1348 1346 1344 1343 1341 1340 1338 1336 1335 1333 1331 1330 1328 1327 1326 1325 1324 1323 1324 1324 1325 1326 1326 1327 1329 1330 1333 1335 1337 1340 1342 1346 1349 1351 1353 1356
1352 1352 1349 1347 1347 1346 1345 1343 1342 1340 1338 1337 1335 1334 1333 1331 1329 1328 1326 1325 1324 1322 1320 1320 1319 1319 1319 1319 1320 1321 1322 1323 1324 1326 1328 1330 1333 1335 1338 1340 1342 1345 1348 1351
1345 1345 1343 1341 1341 1340 1339 1338 1336 1334 1332 1331 1330 1328 1327 1325 1324 1323 1321 1320 1319 1317 1315 1315 1315 1314 1315 1315 1315 1316 1317 1319 1320 1322 1324 1326 1329 1331 1333 1336 1338 1340 1343 1346
1337 1337 1336 1335 1334 1334 1333 1332 1330 1328 1327 1325 1324 1323 1322 1320 1319 1318 1316 1315 1314 1313 1312 1311 1311 1311 1311 1311 1311 1312 1313 1315 1317 1318 1320 1322 1325 1327 1329 1332 1334 1337 1339 1341
1332 1330 1330 1329 1328 1327 1327 1326 1324 1323 1321 1320 1319 1317 1316 1315 1314 1313 1312 1311 1310 1309 1309 1308 1307 1307 1307 1307 1308 1309 1310 1311 1313 1315 1317 1319 1321 1324 1326 1328 1330 1333 1335 1338
1325 1324 1324 1323 1322 1321 1320 1319 1318 1317 1316 1314 1313 1312 1311 1310 1309 1308 1307 1307 1306 1305 1305 1304 1304 1303 1303 1304 1305 1305 1307 1308 1310 1312 1314 1316 1318 1321 1323 1324 1327 1329 1332 1335
1318 1318 1317 1317 1316 1315 1314 1313 1312 1311 1310 1309 1308 1307 1306 1306 1305 1304 1303 1303 1302 1300 1300 1300 1300 1300 1301 1301 1302 1303 1304 1305 1307 1309 1311 1314 1316 1318 1320 1322 1324 1327 1329 1331
1314 1313 1312 1311 1310 1310 1309 1308 1307 1306 1305 1304 1303 1302 1301 1301 1301 1300 1299 1299 1298 1298 1298 1297 1297 1298 1298 1299 1300 1301 1302 1303 1305 1307 1309 1311 1313 1315 1317 1319 1321 1324 1326 1328
1310 1309 1307 1306 1305 1305 1304 1303 1302 1301 1300 1300 1299 1298 1297 1297 1297 1296 1296 1295 1295 1296 1295 1295 1295 1295 1296 1297 1298 1299 1300 1301 1303 1305 1306 1308 1310 1312 1314 1317 1319 1321 1323 1325
1308 1306 1304 1303 1301 1300 1299 1299 1298 1297 1296 1295 1295 1294 1293 1293 1293 1293 1293 1293 1292 1293 1293 1293 1293 1294 1295 1295 1296 1297 1298 1299 1301 1303 1304 1306 1308 1310 1312 1314 1316 1318 1320 1322
1305 1303 1302 1300 1298 1297 1296 1295 1294 1293 1293 1292 1292 1291 1291 1290 1290 1290 1290 1290 1290 1290 1291 1291 1291 1292 1293 1294 1294 1295 1297 1298 1299 1301 1302 1304 1306 1308 1309 1311 1313 1315 1317 1319
1303 1301 1299 1298 1296 1295 1293 1292 1292 1291 1291 1290 1290 1290 1289 1288 1288 1289 1289 1288 1288 1289 1289 1289 1290 1291 1291 1292 1293 1294 1295 1296 1297 1299 1300 1302 1304 1306 1307 1309 1310 1312 1314 1316
1300 1298 1297 1295 1294 1293 1291 1290 1289 1289 1289 1288 1288 1288 1288 1288 1287 1287 1287 1287 1287 1287 1287 1288 1288 1289 1290 1290 1291 1292 1293 1294 1296 1297 1298 1300 1301 1303 1305 1306 1308 1310 1311 1313
1298 1297 1295 1294 1293 1292 1290 1289 1288 1287 1287 1287 1286 1286 1286 1286 1286 1286 1286 1286 1286 1286 1286 1286 1287 1287 1288 1289 1290 1291 1292 1293 1294 1295 1297 1298 1300 1301 1303 1304 1306 1307 1309 1310
1297 1295 1293 1292 1291 1290 1289 1288 1288 1287 1287 1286 1285 1285 1285 1285 1285 1285 1284 1284 1285 1285 1285 1285 1286 1287 1287 1288 1289 1290 1291 1292 1293 1294 1295 1297 1298 1300 1301 1303 1304 1305 1306 1307